Location: Hopville
(44.8032°N, 123.1329°W)
Time: 04:00:32
(UTC+00:00)

DMSP B5D2-2 - Pass Details

Date: 24 January 2021
Orbit: 790 x 806 km, 98.3° (Epoch: 26 February)

Event Time Altitude Azimuth Distance (km) Brightness Sun altitude
Rises 14:58:12 0° 171° (S) 3,290 7.7 -7.6°
Reaches altitude 10° 15:00:31 10° 173° (S) 2,367 6.9 -7.2°
Maximum altitude 15:05:44 71° 257° (WSW) 848 4.1 -6.3°
Drops below altitude 10° 15:11:02 10° 342° (NNW) 2,393 6.2 -5.5°
Sets 15:13:24 0° 345° (NNW) 3,330 6.9 -5.1°
